This demonstration page uses our WeatherBlox Daily Observations layout. Learn more.

Left ArrowRight Arrow

38.20091, -84.87328

Hourly Observations for June 11, 2021

Temp ( °F °C ) Dew Point ( °F °C ) Humidity (%) Winds ( mph kmh ) Pressure ( in mb ) Visibility ( mi km ) Precip ( " mm )
12:53 am 00:53 Clear 72 22.2 69 20.6 91 91 Calm 29.85 1011 8 13 0.00 0.00
1:14 am 01:14 Partly Cloudy with Mist and Fog 71 21.7 69 20.6 94 94 Calm 29.85 1011 5 8 0.00 0.00
1:53 am 01:53 Partly Cloudy 71 21.7 69 20.6 94 94 Calm 29.83 1010 8 13 0.00 0.00
2:53 am 02:53 Mostly Clear with Mist and Fog 70 21.1 68 20 93 93 Calm 29.83 1010 6 10 0.00 0.00
3:53 am 03:53 Cloudy 71 21.7 68 20 90 90 Calm 29.83 1010 9 14 0.00 0.00
4:32 am 04:32 Cloudy 71 21.7 68 20 90 90 Calm 29.83 1010 8 13 0.00 0.00
4:53 am 04:53 Mostly Cloudy 71 21.7 68 20 90 90 Calm 29.83 1010 7 11 0.00 0.00
5:31 am 05:31 Partly Cloudy 71 21.7 68 20 90 90 Calm 29.82 1010 8 13 0.00 0.00
5:53 am 05:53 Partly Cloudy with Mist and Fog 70 21.1 68 20 93 93 Calm 29.82 1010 5 8 0.00 0.00
6:08 am 06:08 Mostly Cloudy with Mist and Fog 71 21.7 68 20 90 90 Calm 29.83 1010 4 6 0.00 0.00
6:13 am 06:13 Cloudy with Mist and Fog 71 21.7 69 20.6 94 94 Calm 29.83 1010 2 3 0.00 0.00
6:17 am 06:17 Cloudy with Mist and Fog 71 21.7 69 20.6 94 94 Calm 29.82 1010 1 1 0.00 0.00
6:23 am 06:23 Cloudy with Fog 71 21.7 69 20.6 94 94 Calm 29.83 1010 0 0 0.00 0.00
6:31 am 06:31 Cloudy with Mist and Fog 71 21.7 69 20.6 94 94 Calm 29.83 1010 1 1 0.00 0.00
6:34 am 06:34 Cloudy with Mist and Fog 71 21.7 69 20.6 94 94 Calm 29.83 1010 1 2 0.00 0.00
6:45 am 06:45 Cloudy with Light Rain 72 22.2 69 20.6 91 91 Calm 29.83 1010 1 2 0.01 0.25
6:50 am 06:50 Cloudy with Light Rain 72 22 70 21 94 94 Calm 29.83 1010 1 1 0.01 0.25
6:53 am 06:53 Cloudy with Light Rain 72 22.2 69 20.6 91 91 Calm 29.82 1010 1 1 0.01 0.25
7:09 am 07:09 Cloudy with Rain 72 22.2 69 20.6 91 91 Calm 29.83 1010 1 1 0.10 2.54
7:17 am 07:17 Cloudy with Rain 72 22.2 69 20.6 91 91 Calm 29.83 1010 1 2 0.13 3.30
7:32 am 07:32 Cloudy with Light Rain 72 22.2 70 21.1 94 94 S 3 6 29.83 1010 3 5 0.15 3.81
7:39 am 07:39 Cloudy with Mist and Fog 72 22.2 70 21.1 94 94 Calm 29.83 1010 6 10 0.16 4.06
7:50 am 07:50 Mostly Cloudy with Mist and Fog 72 22 70 21 94 94 SSW 3 6 29.82 1010 5 8 0.16 4.06
7:53 am 07:53 Mostly Cloudy with Mist and Fog 72 22.2 70 21.1 94 94 SW 5 7 29.82 1010 4 6 0.16 4.06
8:05 am 08:05 Cloudy with Mist and Fog 72 22.2 70 21.1 94 94 WSW 5 7 29.83 1010 3 4 0.00 0.00
8:11 am 08:11 Cloudy with Mist and Fog 73 22.8 70 21.1 90 90 WSW 5 7 29.82 1010 1 2 0.00 0.00
8:18 am 08:18 Cloudy with Fog 73 22.8 70 21.1 90 90 WSW 5 7 29.82 1010 1 1 0.00 0.00
8:25 am 08:25 Cloudy with Mist and Fog 73 22.8 71 21.7 94 94 Calm 29.82 1010 1 2 0.00 0.00
8:33 am 08:33 Cloudy with Mist and Fog 73 22.8 71 21.7 94 94 Calm 29.83 1010 3 5 0.00 0.00
8:53 am 08:53 Cloudy with Mist and Fog 73 22.8 71 21.7 94 94 Calm 29.84 1010 6 10 0.00 0.00
9:42 am 09:42 Cloudy 76 24.4 72 22.2 88 88 WNW 5 7 29.84 1010 7 11 0.00 0.00
9:53 am 09:53 Cloudy 76 24.4 71 21.7 85 85 NNW 3 6 29.84 1010 7 11 0.00 0.00
10:27 am 10:27 Cloudy 79 26.1 72 22.2 79 79 Calm 29.82 1010 9 14 0.00 0.00
10:38 am 10:38 Cloudy 79 26.1 71 21.7 77 77 VRB 3 6 29.82 1010 10 16 0.00 0.00
10:40 am 10:40 Cloudy 79 26.1 71 21.7 77 77 NW 5 7 29.82 1010 10 16 0.00 0.00
10:53 am 10:53 Cloudy 78 25.6 71 21.7 79 79 W 5 7 29.84 1010 10 16 0.00 0.00
11:15 am 11:15 Cloudy 79 26.1 71 21.7 77 77 WNW 5 7 29.82 1010 10 16 0.00 0.00
11:53 am 11:53 Mostly Sunny 82 27.8 71 21.7 69 69 WNW 7 11 29.83 1010 10 16 0.00 0.00
12:53 pm 12:53 Mostly Sunny 84 28.9 70 21.1 63 63 VRB 3 6 29.81 1010 10 16 0.00 0.00
1:53 pm 13:53 Partly Cloudy 85 29.4 70 21.1 61 61 N 8 13 29.80 1009 10 16 0.00 0.00
2:53 pm 14:53 Mostly Sunny 87 30.6 69 20.6 55 55 W 8 13 29.78 1008 10 16 0.00 0.00
3:53 pm 15:53 Mostly Cloudy 87 30.6 70 21.1 57 57 WNW 3 6 29.77 1008 10 16 0.00 0.00
4:53 pm 16:53 Mostly Cloudy with Nearby Thunderstorms 84 28.9 73 22.8 70 70 NE 6 9 29.75 1008 10 16 0.00 0.00
5:40 pm 17:40 Cloudy with Light Rain 79 26.1 72 22.2 79 79 E 10 17 29.74 1007 3 5 0.04 1.02
5:51 pm 17:51 Mostly Cloudy with Thunderstorms 79 26 72 22 79 79 ENE 6 9 29.73 1007 10 16 0.04 1.02
5:53 pm 17:53 Mostly Cloudy with Thunderstorms 79 26.1 71 21.7 77 77 E 6 9 29.75 1007 10 16 0.04 1.02
6:29 pm 18:29 Mostly Cloudy with Strong Thunderstorms 76 24.4 70 21.1 82 82 NW 18 30 29.80 1009 2 3 0.10 2.54
6:31 pm 18:31 Mostly Cloudy with Strong Thunderstorms 74 23.3 70 21.1 88 88 NNW 32 52 29.81 1010 1 1 0.29 7.37
6:33 pm 18:33 Mostly Cloudy with Strong Thunderstorms 73 22.8 68 20 84 84 WSW 18 30 29.82 1010 0 0 0.48 12.19
6:43 pm 18:43 Cloudy with Thunderstorms 71 21.7 67 19.4 87 87 SE 6 9 29.79 1009 1 2 0.57 14.48
6:45 pm 18:45 Cloudy with Thunderstorms 70 21.1 67 19.4 90 90 Calm 29.79 1009 3 4 0.58 14.73
6:53 pm 18:53 Mostly Cloudy with Thunderstorms 71 21.7 68 20 90 90 Calm 29.79 1009 10 16 0.58 14.73
7:08 pm 19:08 Cloudy with Nearby Thunderstorms 72 22.2 68 20 87 87 NNE 3 6 29.80 1009 10 16 0.00 0.00
7:16 pm 19:16 Cloudy with Thunderstorms 73 22.8 68 20 84 84 NNE 9 15 29.80 1009 2 2 0.12 3.05
7:27 pm 19:27 Cloudy with Thunderstorms 73 22.8 67 19.4 81 81 VRB 3 6 29.78 1009 4 6 0.15 3.81
7:40 pm 19:40 Mostly Cloudy with Light Rain 72 22.2 68 20 87 87 WSW 3 6 29.78 1008 10 16 0.16 4.06
7:53 pm 19:53 Mostly Sunny 72 22.2 68 20 87 87 WSW 3 6 29.78 1008 10 16 0.16 4.06
8:53 pm 20:53 Sunny 73 22.8 69 20.6 87 87 Calm 29.80 1009 10 16 0.00 0.00
9:53 pm 21:53 Clear 72 22.2 69 20.6 91 91 Calm 29.80 1009 10 16 0.00 0.00
10:53 pm 22:53 Clear 72 22.2 69 20.6 91 91 Calm 29.83 1010 10 16 0.00 0.00
11:53 pm 23:53 Clear 71 21.7 68 20 90 90 Calm 29.81 1010 9 14 0.00 0.00

Powered by AerisWeather